Location: Dompnac
(44.5644°N, 4.1026°E)
Time: 11:23:58
(UTC+00:00)

Cosmos 1891 Rocket - Pass Details

Date: 22 January 2021
Orbit: 934 x 1018 km, 82.9° (Epoch: 24 February)

Event Time Altitude Azimuth Distance (km) Brightness Sun altitude
Rises 05:23:47 0° 204° (SSW) 3,662 7.4 -19.1°
Reaches altitude 10° 05:26:25 10° 210° (SSW) 2,706 6.6 -18.6°
Maximum altitude 05:32:20 47° 284° (WNW) 1,250 4.6 -17.6°
Drops below altitude 10° 05:38:12 10° 357° (N) 2,673 6.7 -16.6°
Sets 05:40:48 0° 4° (N) 3,614 7.4 -16.1°
